Time,TemperatureF,DewpointF,PressureIn,WindDirection,WindDirectionDegrees,WindSpeedMPH,WindSpeedGustMPH,Humidity,HourlyPrecipIn,Conditions,Clouds,dailyrainin,SoftwareType,DateUTC
2013-04-17 00:00:00,57.8,56.1,30.19,West,271,0.0,0.0,94,0.00,,---,0.00,VWS V14.01,2013-04-17 04:00:00,
2013-04-17 00:01:00,57.8,56.1,30.19,West,271,0.0,0.0,94,0.00,,---,0.00,VWS V14.01,2013-04-17 04:01:00,
2013-04-17 00:06:00,57.6,55.9,30.19,West,271,0.0,0.0,94,0.00,,---,0.00,VWS V14.01,2013-04-17 04:06:00,
2013-04-17 00:11:00,57.4,55.7,30.18,West,271,0.0,0.0,94,0.00,,---,0.00,VWS V14.01,2013-04-17 04:11:00,
2013-04-17 00:16:00,57.4,55.7,30.18,West,270,0.0,0.0,94,0.00,,---,0.00,VWS V14.01,2013-04-17 04:16:00,
2013-04-17 00:21:00,57.5,55.8,30.18,West,271,0.0,0.0,94,0.00,,---,0.00,VWS V14.01,2013-04-17 04:21:00,
2013-04-17 00:26:00,57.5,56.1,30.18,West,271,0.0,0.0,95,0.00,,---,0.00,VWS V14.01,2013-04-17 04:26:00,
2013-04-17 00:31:00,57.6,56.2,30.18,West,269,0.0,1.0,95,0.00,,---,0.00,VWS V14.01,2013-04-17 04:31:00,
2013-04-17 00:36:00,57.5,55.8,30.18,West,269,0.0,1.0,94,0.00,,---,0.00,VWS V14.01,2013-04-17 04:36:00,
2013-04-17 00:41:00,57.4,55.7,30.18,West,269,0.0,1.0,94,0.00,,---,0.00,VWS V14.01,2013-04-17 04:41:00,
2013-04-17 00:46:00,57.3,55.9,30.19,West,269,0.0,1.0,95,0.00,,---,0.00,VWS V14.01,2013-04-17 04:46:00,
2013-04-17 00:51:00,57.3,55.9,30.19,West,269,0.0,1.0,95,0.00,,---,0.00,VWS V14.01,2013-04-17 04:51:00,
2013-04-17 00:56:00,57.3,55.9,30.19,West,269,0.0,0.0,95,0.00,,---,0.00,VWS V14.01,2013-04-17 04:56:00,
2013-04-17 01:01:00,57.2,55.8,30.19,West,270,0.0,0.0,95,0.00,,---,0.00,VWS V14.01,2013-04-17 05:01:00,
2013-04-17 01:06:00,57.2,55.8,30.19,West,269,0.0,0.0,95,0.00,,---,0.00,VWS V14.01,2013-04-17 05:06:00,
2013-04-17 01:11:00,57.2,55.8,30.19,West,269,0.0,0.0,95,0.00,,---,0.00,VWS V14.01,2013-04-17 05:11:00,
2013-04-17 01:16:00,57.2,55.8,30.19,West,269,0.0,0.0,95,0.00,,---,0.00,VWS V14.01,2013-04-17 05:16:00,
2013-04-17 01:21:00,57.1,55.7,30.19,West,269,0.0,0.0,95,0.00,,---,0.00,VWS V14.01,2013-04-17 05:21:00,
2013-04-17 01:26:00,56.9,55.5,30.19,West,269,0.0,0.0,95,0.00,,---,0.00,VWS V14.01,2013-04-17 05:26:00,
2013-04-17 01:31:00,56.8,55.4,30.19,West,269,0.0,0.0,95,0.00,,---,0.00,VWS V14.01,2013-04-17 05:31:00,
2013-04-17 01:36:00,56.7,55.3,30.19,West,270,0.0,0.0,95,0.00,,---,0.00,VWS V14.01,2013-04-17 05:36:00,
2013-04-17 01:41:00,56.7,55.3,30.19,West,269,0.0,0.0,95,0.00,,---,0.00,VWS V14.01,2013-04-17 05:41:00,
2013-04-17 01:46:00,56.6,55.2,30.19,West,269,0.0,0.0,95,0.00,,---,0.00,VWS V14.01,2013-04-17 05:46:00,
2013-04-17 01:51:00,56.5,55.1,30.19,West,269,0.0,0.0,95,0.00,,---,0.00,VWS V14.01,2013-04-17 05:51:00,
2013-04-17 01:56:00,56.5,55.1,30.19,West,269,0.0,0.0,95,0.00,,---,0.00,VWS V14.01,2013-04-17 05:56:00,
2013-04-17 02:01:00,56.4,55.0,30.19,West,269,0.0,0.0,95,0.00,,---,0.00,VWS V14.01,2013-04-17 06:01:00,
2013-04-17 02:06:00,56.3,54.9,30.19,West,269,0.0,0.0,95,0.00,,---,0.00,VWS V14.01,2013-04-17 06:06:00,
2013-04-17 02:11:00,56.2,54.8,30.18,West,269,0.0,0.0,95,0.00,,---,0.00,VWS V14.01,2013-04-17 06:11:00,
2013-04-17 02:16:00,56.2,54.8,30.18,West,269,0.0,0.0,95,0.00,,---,0.00,VWS V14.01,2013-04-17 06:16:00,
2013-04-17 02:21:00,56.1,54.7,30.18,West,269,0.0,0.0,95,0.00,,---,0.00,VWS V14.01,2013-04-17 06:21:00,
2013-04-17 02:27:00,56.0,54.6,30.18,West,269,0.0,0.0,95,0.00,,---,0.00,VWS V14.01,2013-04-17 06:27:00,
2013-04-17 02:32:00,56.0,54.6,30.18,West,269,0.0,0.0,95,0.00,,---,0.00,VWS V14.01,2013-04-17 06:32:00,
2013-04-17 02:37:00,55.9,54.5,30.18,West,269,0.0,0.0,95,0.00,,---,0.00,VWS V14.01,2013-04-17 06:37:00,
2013-04-17 02:42:00,55.8,54.4,30.18,West,269,0.0,0.0,95,0.00,,---,0.00,VWS V14.01,2013-04-17 06:42:00,
2013-04-17 02:47:00,55.8,54.4,30.18,West,269,0.0,0.0,95,0.00,,---,0.00,VWS V14.01,2013-04-17 06:47:00,
2013-04-17 02:52:00,55.7,54.3,30.18,West,269,0.0,0.0,95,0.00,,---,0.00,VWS V14.01,2013-04-17 06:52:00,
2013-04-17 02:57:00,55.7,54.3,30.18,West,269,0.0,0.0,95,0.00,,---,0.00,VWS V14.01,2013-04-17 06:57:00,
2013-04-17 03:02:00,55.7,54.3,30.17,West,269,0.0,0.0,95,0.00,,---,0.00,VWS V14.01,2013-04-17 07:02:00,
2013-04-17 03:07:00,55.9,54.8,30.17,West,269,0.0,0.0,96,0.00,,---,0.00,VWS V14.01,2013-04-17 07:07:00,
2013-04-17 03:12:00,56.0,54.9,30.17,West,269,0.0,0.0,96,0.00,,---,0.00,VWS V14.01,2013-04-17 07:12:00,
2013-04-17 03:17:00,55.9,54.5,30.17,West,269,0.0,0.0,95,0.00,,---,0.00,VWS V14.01,2013-04-17 07:17:00,
2013-04-17 03:22:00,55.8,54.4,30.17,West,269,0.0,0.0,95,0.00,,---,0.00,VWS V14.01,2013-04-17 07:22:00,
2013-04-17 03:27:00,55.7,54.3,30.17,West,269,0.0,0.0,95,0.00,,---,0.00,VWS V14.01,2013-04-17 07:27:00,
2013-04-17 03:32:00,55.8,54.7,30.17,West,269,0.0,0.0,96,0.00,,---,0.00,VWS V14.01,2013-04-17 07:32:00,
2013-04-17 03:37:00,55.8,54.7,30.17,West,269,0.0,0.0,96,0.00,,---,0.00,VWS V14.01,2013-04-17 07:37:00,
2013-04-17 03:42:00,55.7,54.6,30.17,West,269,0.0,0.0,96,0.00,,---,0.00,VWS V14.01,2013-04-17 07:42:00,
2013-04-17 03:47:00,55.6,54.5,30.17,West,269,0.0,0.0,96,0.00,,---,0.00,VWS V14.01,2013-04-17 07:47:00,
2013-04-17 03:52:00,55.5,54.4,30.17,West,269,0.0,0.0,96,0.00,,---,0.00,VWS V14.01,2013-04-17 07:52:00,
2013-04-17 03:57:00,55.4,54.3,30.17,West,269,0.0,0.0,96,0.00,,---,0.00,VWS V14.01,2013-04-17 07:57:00,
2013-04-17 04:02:00,55.3,54.2,30.17,West,269,0.0,0.0,96,0.00,,---,0.00,VWS V14.01,2013-04-17 08:02:00,
2013-04-17 04:07:00,55.3,54.2,30.17,West,269,0.0,0.0,96,0.00,,---,0.00,VWS V14.01,2013-04-17 08:07:00,
2013-04-17 04:12:00,55.2,54.1,30.17,West,270,0.0,0.0,96,0.00,,---,0.00,VWS V14.01,2013-04-17 08:12:00,
2013-04-17 04:17:00,55.1,54.0,30.16,West,269,0.0,0.0,96,0.00,,---,0.00,VWS V14.01,2013-04-17 08:17:00,
2013-04-17 04:22:00,55.0,53.9,30.16,West,269,0.0,0.0,96,0.00,,---,0.00,VWS V14.01,2013-04-17 08:22:00,
2013-04-17 04:27:00,54.9,53.8,30.16,West,269,0.0,0.0,96,0.00,,---,0.00,VWS V14.01,2013-04-17 08:27:00,
2013-04-17 04:32:00,54.8,53.7,30.16,West,269,0.0,0.0,96,0.00,,---,0.00,VWS V14.01,2013-04-17 08:32:00,
2013-04-17 04:37:00,54.9,53.8,30.16,West,269,0.0,0.0,96,0.00,,---,0.00,VWS V14.01,2013-04-17 08:37:00,
2013-04-17 04:42:00,54.9,53.8,30.16,West,269,0.0,0.0,96,0.00,,---,0.00,VWS V14.01,2013-04-17 08:42:00,
2013-04-17 04:47:00,55.0,53.9,30.17,West,269,0.0,0.0,96,0.00,,---,0.00,VWS V14.01,2013-04-17 08:47:00,
2013-04-17 04:52:00,55.0,53.9,30.17,West,269,0.0,0.0,96,0.00,,---,0.00,VWS V14.01,2013-04-17 08:52:00,
2013-04-17 04:57:00,55.0,53.9,30.17,West,269,0.0,0.0,96,0.00,,---,0.00,VWS V14.01,2013-04-17 08:57:00,
2013-04-17 05:02:00,54.9,53.8,30.16,West,269,0.0,0.0,96,0.00,,---,0.00,VWS V14.01,2013-04-17 09:02:00,
2013-04-17 05:07:00,54.8,53.7,30.17,West,269,0.0,0.0,96,0.00,,---,0.00,VWS V14.01,2013-04-17 09:07:00,
2013-04-17 05:12:00,54.7,53.6,30.16,West,270,0.0,0.0,96,0.00,,---,0.00,VWS V14.01,2013-04-17 09:12:00,
2013-04-17 05:17:00,54.7,53.6,30.16,West,269,0.0,0.0,96,0.00,,---,0.00,VWS V14.01,2013-04-17 09:17:00,
2013-04-17 05:22:00,54.7,53.6,30.16,West,269,0.0,0.0,96,0.00,,---,0.00,VWS V14.01,2013-04-17 09:22:00,
2013-04-17 05:27:00,54.8,53.7,30.16,West,269,0.0,0.0,96,0.00,,---,0.00,VWS V14.01,2013-04-17 09:27:00,
2013-04-17 05:32:00,55.5,54.4,30.16,West,267,1.0,1.0,96,0.00,,---,0.00,VWS V14.01,2013-04-17 09:32:00,
2013-04-17 05:37:00,56.4,55.3,30.17,West,267,0.0,1.0,96,0.00,,---,0.00,VWS V14.01,2013-04-17 09:37:00,
2013-04-17 05:42:00,56.9,55.8,30.17,West,281,1.0,1.0,96,0.00,,---,0.00,VWS V14.01,2013-04-17 09:42:00,
2013-04-17 05:47:00,57.4,56.3,30.17,WSW,258,0.0,1.0,96,0.00,,---,0.00,VWS V14.01,2013-04-17 09:47:00,
2013-04-17 05:52:00,57.5,56.4,30.17,South,175,0.0,1.0,96,0.00,,---,0.00,VWS V14.01,2013-04-17 09:52:00,
2013-04-17 05:57:00,57.5,56.4,30.17,South,175,0.0,0.0,96,0.00,,---,0.00,VWS V14.01,2013-04-17 09:57:00,
2013-04-17 06:02:00,57.6,56.5,30.17,WSW,237,0.0,0.0,96,0.00,,---,0.00,VWS V14.01,2013-04-17 10:02:00,
2013-04-17 06:07:00,57.8,56.7,30.17,WSW,237,0.0,0.0,96,0.00,,---,0.00,VWS V14.01,2013-04-17 10:07:00,
2013-04-17 06:12:00,57.8,56.7,30.17,SW,233,1.0,1.0,96,0.00,,---,0.00,VWS V14.01,2013-04-17 10:12:00,
2013-04-17 06:17:00,57.9,56.8,30.17,SW,230,0.0,1.0,96,0.00,,---,0.00,VWS V14.01,2013-04-17 10:17:00,
2013-04-17 06:22:00,57.9,56.8,30.18,SSW,211,0.0,1.0,96,0.00,,---,0.00,VWS V14.01,2013-04-17 10:22:00,
2013-04-17 06:27:00,57.8,56.7,30.18,SSW,210,0.0,0.0,96,0.00,,---,0.00,VWS V14.01,2013-04-17 10:27:00,
2013-04-17 06:32:00,57.7,56.6,30.18,SSW,210,0.0,1.0,96,0.00,,---,0.00,VWS V14.01,2013-04-17 10:32:00,
2013-04-17 06:37:00,57.5,56.4,30.18,SSW,210,0.0,1.0,96,0.00,,---,0.00,VWS V14.01,2013-04-17 10:37:00,
2013-04-17 06:43:00,57.4,56.3,30.18,SSW,210,0.0,1.0,96,0.00,,---,0.00,VWS V14.01,2013-04-17 10:43:00,
2013-04-17 06:47:00,57.1,56.0,30.19,SSW,210,0.0,1.0,96,0.00,,---,0.00,VWS V14.01,2013-04-17 10:47:00,
2013-04-17 06:52:00,56.8,55.7,30.19,SSW,210,0.0,1.0,96,0.00,,---,0.00,VWS V14.01,2013-04-17 10:52:00,
2013-04-17 06:57:00,56.7,55.6,30.19,SSW,210,0.0,0.0,96,0.00,,---,0.00,VWS V14.01,2013-04-17 10:57:00,
2013-04-17 07:02:00,56.6,55.5,30.19,SSW,210,0.0,0.0,96,0.00,,---,0.00,VWS V14.01,2013-04-17 11:02:00,
2013-04-17 07:07:00,56.5,55.4,30.19,SSW,211,0.0,0.0,96,0.00,,---,0.00,VWS V14.01,2013-04-17 11:07:00,
2013-04-17 07:12:00,56.4,55.3,30.19,SSW,211,0.0,0.0,96,0.00,,---,0.00,VWS V14.01,2013-04-17 11:12:00,
2013-04-17 07:18:00,56.6,55.5,30.19,SSW,211,0.0,0.0,96,0.00,,---,0.00,VWS V14.01,2013-04-17 11:18:00,
2013-04-17 07:23:00,57.0,55.9,30.19,South,186,0.0,1.0,96,0.00,,---,0.00,VWS V14.01,2013-04-17 11:23:00,
2013-04-17 07:28:00,57.3,56.2,30.19,South,186,0.0,0.0,96,0.00,,---,0.00,VWS V14.01,2013-04-17 11:28:00,
2013-04-17 07:33:00,57.7,56.3,30.19,South,175,0.0,0.0,95,0.00,,---,0.00,VWS V14.01,2013-04-17 11:33:00,
2013-04-17 07:38:00,58.2,56.8,30.19,WSW,245,0.0,1.0,95,0.00,,---,0.00,VWS V14.01,2013-04-17 11:38:00,
2013-04-17 07:43:00,58.4,57.0,30.19,WSW,246,0.0,1.0,95,0.00,,---,0.00,VWS V14.01,2013-04-17 11:43:00,
2013-04-17 07:48:00,58.7,57.3,30.19,WSW,244,0.0,1.0,95,0.00,,---,0.00,VWS V14.01,2013-04-17 11:48:00,
2013-04-17 07:53:00,59.0,57.6,30.19,WSW,244,0.0,1.0,95,0.00,,---,0.00,VWS V14.01,2013-04-17 11:53:00,
2013-04-17 07:58:00,59.1,57.7,30.19,WSW,244,0.0,0.0,95,0.00,,---,0.00,VWS V14.01,2013-04-17 11:58:00,
2013-04-17 08:03:00,59.3,57.9,30.19,West,269,0.0,1.0,95,0.00,,---,0.00,VWS V14.01,2013-04-17 12:03:00,
2013-04-17 08:08:00,59.5,58.1,30.19,SE,128,1.0,1.0,95,0.00,,---,0.00,VWS V14.01,2013-04-17 12:08:00,
2013-04-17 08:13:00,59.6,58.2,30.19,SW,232,0.0,2.0,95,0.00,,---,0.00,VWS V14.01,2013-04-17 12:13:00,
2013-04-17 08:18:00,59.7,58.3,30.19,SSW,200,1.0,2.0,95,0.00,,---,0.00,VWS V14.01,2013-04-17 12:18:00,
2013-04-17 08:23:00,59.9,58.5,30.18,SW,221,0.0,2.0,95,0.00,,---,0.00,VWS V14.01,2013-04-17 12:23:00,
2013-04-17 08:28:00,60.2,58.8,30.18,West,269,0.0,1.0,95,0.00,,---,0.00,VWS V14.01,2013-04-17 12:28:00,
2013-04-17 08:33:00,60.4,59.0,30.18,SW,222,2.0,2.0,95,0.00,,---,0.00,VWS V14.01,2013-04-17 12:33:00,
2013-04-17 08:38:00,60.6,59.5,30.18,SSW,209,1.0,2.0,96,0.00,,---,0.00,VWS V14.01,2013-04-17 12:38:00,
2013-04-17 08:43:00,60.9,59.8,30.17,SW,236,1.0,2.0,96,0.00,,---,0.00,VWS V14.01,2013-04-17 12:43:00,
2013-04-17 08:48:00,61.3,60.2,30.17,SSE,156,0.0,2.0,96,0.00,,---,0.00,VWS V14.01,2013-04-17 12:48:00,
2013-04-17 08:53:00,61.5,60.3,30.17,South,188,1.0,2.0,96,0.00,,---,0.00,VWS V14.01,2013-04-17 12:53:00,
2013-04-17 08:58:00,61.8,60.7,30.17,SE,132,0.0,1.0,96,0.00,,---,0.00,VWS V14.01,2013-04-17 12:58:00,
2013-04-17 09:03:00,62.2,61.0,30.17,SE,132,0.0,1.0,96,0.00,,---,0.00,VWS V14.01,2013-04-17 13:03:00,
2013-04-17 09:08:00,62.6,61.2,30.17,WSW,249,1.0,2.0,95,0.00,,---,0.00,VWS V14.01,2013-04-17 13:08:00,
2013-04-17 09:13:00,63.1,61.7,30.17,WSW,254,0.0,2.0,95,0.00,,---,0.00,VWS V14.01,2013-04-17 13:13:00,
2013-04-17 09:18:00,63.5,61.8,30.17,NW,307,0.0,2.0,94,0.00,,---,0.00,VWS V14.01,2013-04-17 13:18:00,
2013-04-17 09:23:00,64.0,61.9,30.17,West,269,1.0,5.0,93,0.00,,---,0.00,VWS V14.01,2013-04-17 13:23:00,
2013-04-17 09:28:00,64.7,62.3,30.16,NW,313,0.0,2.0,92,0.00,,---,0.00,VWS V14.01,2013-04-17 13:28:00,
2013-04-17 09:33:00,65.3,62.6,30.16,WSW,242,0.0,2.0,91,0.00,,---,0.00,VWS V14.01,2013-04-17 13:33:00,
2013-04-17 09:38:00,65.9,62.6,30.16,NW,307,1.0,4.0,89,0.00,,---,0.00,VWS V14.01,2013-04-17 13:38:00,
2013-04-17 09:43:00,66.3,62.6,30.16,WSW,241,2.0,4.0,88,0.00,,---,0.00,VWS V14.01,2013-04-17 13:43:00,
2013-04-17 09:48:00,66.7,62.7,30.16,SSW,209,2.0,4.0,87,0.00,,---,0.00,VWS V14.01,2013-04-17 13:48:00,
2013-04-17 09:53:00,67.1,63.1,30.16,SW,223,2.0,5.0,87,0.00,,---,0.00,VWS V14.01,2013-04-17 13:53:00,
2013-04-17 09:58:00,67.5,63.2,30.16,South,190,4.0,4.0,86,0.00,,---,0.00,VWS V14.01,2013-04-17 13:58:00,
2013-04-17 10:03:00,67.7,62.7,30.16,WSW,254,2.0,6.0,84,0.00,,---,0.00,VWS V14.01,2013-04-17 14:03:00,
2013-04-17 10:08:00,68.0,63.0,30.16,WNW,293,3.0,6.0,84,0.00,,---,0.00,VWS V14.01,2013-04-17 14:08:00,
2013-04-17 10:13:00,68.6,63.2,30.16,SE,135,1.0,6.0,83,0.00,,---,0.00,VWS V14.01,2013-04-17 14:13:00,
2013-04-17 10:18:00,69.1,63.0,30.16,West,276,2.0,6.0,81,0.00,,---,0.00,VWS V14.01,2013-04-17 14:18:00,
2013-04-17 10:23:00,69.6,63.2,30.16,WNW,286,4.0,6.0,80,0.00,,---,0.00,VWS V14.01,2013-04-17 14:23:00,
2013-04-17 10:28:00,70.1,63.3,30.16,South,173,2.0,4.0,79,0.00,,---,0.00,VWS V14.01,2013-04-17 14:28:00,
2013-04-17 10:33:00,70.4,63.2,30.16,WNW,288,2.0,4.0,78,0.00,,---,0.00,VWS V14.01,2013-04-17 14:33:00,
2013-04-17 10:38:00,70.6,63.4,30.16,West,276,2.0,4.0,78,0.00,,---,0.00,VWS V14.01,2013-04-17 14:38:00,
2013-04-17 10:43:00,70.9,63.3,30.16,NW,304,1.0,5.0,77,0.00,,---,0.00,VWS V14.01,2013-04-17 14:43:00,
2013-04-17 10:48:00,71.6,63.6,30.16,SSW,192,4.0,5.0,76,0.00,,---,0.00,VWS V14.01,2013-04-17 14:48:00,
2013-04-17 10:53:00,72.1,63.4,30.16,South,187,1.0,5.0,74,0.00,,---,0.00,VWS V14.01,2013-04-17 14:53:00,
2013-04-17 10:58:00,72.6,63.8,30.16,South,191,4.0,4.0,74,0.00,,---,0.00,VWS V14.01,2013-04-17 14:58:00,
2013-04-17 11:03:00,73.3,63.7,30.16,SSE,157,1.0,5.0,72,0.00,,---,0.00,VWS V14.01,2013-04-17 15:03:00,
2013-04-17 11:08:00,73.9,63.9,30.16,NW,310,1.0,5.0,71,0.00,,---,0.00,VWS V14.01,2013-04-17 15:08:00,
2013-04-17 11:13:00,74.2,63.8,30.17,WNW,292,2.0,6.0,70,0.00,,---,0.00,VWS V14.01,2013-04-17 15:13:00,
2013-04-17 11:18:00,74.4,64.0,30.17,North,11,2.0,6.0,70,0.00,,---,0.00,VWS V14.01,2013-04-17 15:18:00,
2013-04-17 11:23:00,74.9,64.1,30.17,ENE,74,1.0,6.0,69,0.00,,---,0.00,VWS V14.01,2013-04-17 15:23:00,
2013-04-17 11:28:00,75.2,64.3,30.17,ESE,110,1.0,4.0,69,0.00,,---,0.00,VWS V14.01,2013-04-17 15:28:00,
2013-04-17 11:33:00,76.1,65.2,30.17,SSE,150,1.0,4.0,69,0.00,,---,0.00,VWS V14.01,2013-04-17 15:33:00,
2013-04-17 11:38:00,76.6,64.8,30.17,ENE,61,1.0,6.0,67,0.00,,---,0.00,VWS V14.01,2013-04-17 15:38:00,
2013-04-17 11:43:00,77.1,64.9,30.16,South,186,2.0,6.0,66,0.00,,---,0.00,VWS V14.01,2013-04-17 15:43:00,
2013-04-17 11:48:00,77.7,65.0,30.16,SW,214,4.0,6.0,65,0.00,,---,0.00,VWS V14.01,2013-04-17 15:48:00,
2013-04-17 11:53:00,77.6,65.3,30.16,NW,313,2.0,6.0,66,0.00,,---,0.00,VWS V14.01,2013-04-17 15:53:00,
2013-04-17 11:58:00,77.8,65.1,30.16,WSW,243,2.0,5.0,65,0.00,,---,0.00,VWS V14.01,2013-04-17 15:58:00,
2013-04-17 12:04:00,77.7,65.4,30.16,West,269,2.0,5.0,66,0.00,,---,0.00,VWS V14.01,2013-04-17 16:04:00,
2013-04-17 12:09:00,77.9,64.8,30.16,South,178,2.0,5.0,64,0.00,,---,0.00,VWS V14.01,2013-04-17 16:09:00,
2013-04-17 12:14:00,78.0,64.8,30.16,NW,306,4.0,5.0,64,0.00,,---,0.00,VWS V14.01,2013-04-17 16:14:00,
2013-04-17 12:19:00,77.7,65.0,30.15,SW,230,1.0,5.0,65,0.00,,---,0.00,VWS V14.01,2013-04-17 16:19:00,
2013-04-17 12:24:00,78.1,64.9,30.15,WSW,244,2.0,5.0,64,0.00,,---,0.00,VWS V14.01,2013-04-17 16:24:00,
2013-04-17 12:29:00,78.7,65.1,30.15,SE,146,0.0,6.0,63,0.00,,---,0.00,VWS V14.01,2013-04-17 16:29:00,
2013-04-17 12:34:00,79.4,64.3,30.15,West,261,2.0,6.0,60,0.00,,---,0.00,VWS V14.01,2013-04-17 16:34:00,
2013-04-17 12:39:00,79.7,64.6,30.15,WNW,287,5.0,6.0,60,0.00,,---,0.00,VWS V14.01,2013-04-17 16:39:00,
2013-04-17 12:44:00,79.5,64.4,30.14,SSE,159,4.0,6.0,60,0.00,,---,0.00,VWS V14.01,2013-04-17 16:44:00,
2013-04-17 12:49:00,79.6,64.5,30.15,WNW,294,0.0,6.0,60,0.00,,---,0.00,VWS V14.01,2013-04-17 16:49:00,
2013-04-17 12:54:00,79.5,64.4,30.15,WSW,240,1.0,6.0,60,0.00,,---,0.00,VWS V14.01,2013-04-17 16:54:00,
2013-04-17 12:59:00,79.5,64.4,30.14,WSW,243,2.0,4.0,60,0.00,,---,0.00,VWS V14.01,2013-04-17 16:59:00,
2013-04-17 13:04:00,79.4,64.8,30.14,WSW,257,1.0,4.0,61,0.00,,---,0.00,VWS V14.01,2013-04-17 17:04:00,
2013-04-17 13:09:00,79.2,64.1,30.15,WNW,290,5.0,5.0,60,0.00,,---,0.00,VWS V14.01,2013-04-17 17:09:00,
2013-04-17 13:14:00,78.3,63.8,30.14,WSW,257,1.0,6.0,61,0.00,,---,0.00,VWS V14.01,2013-04-17 17:14:00,
2013-04-17 13:19:00,78.0,63.5,30.14,SW,232,4.0,6.0,61,0.00,,---,0.00,VWS V14.01,2013-04-17 17:19:00,
2013-04-17 13:24:00,77.9,64.3,30.14,SW,221,5.0,6.0,63,0.00,,---,0.00,VWS V14.01,2013-04-17 17:24:00,
2013-04-17 13:29:00,77.5,63.9,30.14,NNW,331,0.0,4.0,63,0.00,,---,0.00,VWS V14.01,2013-04-17 17:29:00,
2013-04-17 13:34:00,77.4,64.3,30.14,SSW,206,3.0,4.0,64,0.00,,---,0.00,VWS V14.01,2013-04-17 17:34:00,
2013-04-17 13:39:00,77.2,64.1,30.14,WNW,303,0.0,4.0,64,0.00,,---,0.00,VWS V14.01,2013-04-17 17:39:00,
2013-04-17 13:44:00,77.1,64.4,30.14,ENE,63,1.0,5.0,65,0.00,,---,0.00,VWS V14.01,2013-04-17 17:44:00,
2013-04-17 13:49:00,76.6,64.0,30.14,NNW,342,2.0,6.0,65,0.00,,---,0.00,VWS V14.01,2013-04-17 17:49:00,
2013-04-17 13:54:00,76.4,64.2,30.14,NW,311,1.0,6.0,66,0.00,,---,0.00,VWS V14.01,2013-04-17 17:54:00,
2013-04-17 13:59:00,76.3,64.1,30.14,NNW,342,0.0,4.0,66,0.00,,---,0.00,VWS V14.01,2013-04-17 17:59:00,
2013-04-17 14:04:00,76.5,63.9,30.14,WNW,286,4.0,4.0,65,0.00,,---,0.00,VWS V14.01,2013-04-17 18:04:00,
2013-04-17 14:09:00,76.4,64.2,30.14,NW,319,1.0,4.0,66,0.00,,---,0.00,VWS V14.01,2013-04-17 18:09:00,
2013-04-17 14:14:00,76.4,64.2,30.13,WNW,289,1.0,4.0,66,0.00,,---,0.00,VWS V14.01,2013-04-17 18:14:00,
2013-04-17 14:19:00,76.2,63.6,30.13,WNW,292,1.0,4.0,65,0.00,,---,0.00,VWS V14.01,2013-04-17 18:19:00,
2013-04-17 14:24:00,76.1,63.9,30.13,NE,51,2.0,4.0,66,0.00,,---,0.00,VWS V14.01,2013-04-17 18:24:00,
2013-04-17 14:29:00,76.2,63.6,30.13,NNE,17,1.0,4.0,65,0.00,,---,0.00,VWS V14.01,2013-04-17 18:29:00,
2013-04-17 14:34:00,76.4,64.2,30.13,NNE,33,0.0,4.0,66,0.00,,---,0.00,VWS V14.01,2013-04-17 18:34:00,
2013-04-17 14:39:00,76.7,64.1,30.13,SW,222,0.0,4.0,65,0.00,,---,0.00,VWS V14.01,2013-04-17 18:39:00,
2013-04-17 14:44:00,76.9,63.8,30.13,SE,142,1.0,4.0,64,0.00,,---,0.00,VWS V14.01,2013-04-17 18:44:00,
2013-04-17 14:49:00,76.7,64.1,30.13,SW,236,0.0,4.0,65,0.00,,---,0.00,VWS V14.01,2013-04-17 18:49:00,
2013-04-17 14:54:00,76.6,63.5,30.13,NNW,342,4.0,4.0,64,0.00,,---,0.00,VWS V14.01,2013-04-17 18:54:00,
2013-04-17 14:59:00,76.2,63.1,30.13,NW,304,4.0,5.0,64,0.00,,---,0.00,VWS V14.01,2013-04-17 18:59:00,
2013-04-17 15:04:00,75.9,63.3,30.13,WNW,291,0.0,5.0,65,0.00,,---,0.00,VWS V14.01,2013-04-17 19:04:00,
2013-04-17 15:09:00,75.9,63.3,30.12,WSW,249,1.0,5.0,65,0.00,,---,0.00,VWS V14.01,2013-04-17 19:09:00,
2013-04-17 15:14:00,75.7,63.1,30.12,SW,214,0.0,5.0,65,0.00,,---,0.00,VWS V14.01,2013-04-17 19:14:00,
2013-04-17 15:19:00,75.7,63.1,30.12,SW,225,0.0,5.0,65,0.00,,---,0.00,VWS V14.01,2013-04-17 19:19:00,
2013-04-17 15:24:00,76.2,64.0,30.11,NNW,341,1.0,5.0,66,0.00,,---,0.00,VWS V14.01,2013-04-17 19:24:00,
2013-04-17 15:29:00,76.7,63.6,30.11,SW,230,2.0,5.0,64,0.00,,---,0.00,VWS V14.01,2013-04-17 19:29:00,
2013-04-17 15:34:00,77.4,63.8,30.11,NE,50,2.0,5.0,63,0.00,,---,0.00,VWS V14.01,2013-04-17 19:34:00,
2013-04-17 15:39:00,78.0,64.4,30.10,SSE,153,2.0,5.0,63,0.00,,---,0.00,VWS V14.01,2013-04-17 19:39:00,
2013-04-17 15:44:00,79.0,64.4,30.10,NE,52,1.0,5.0,61,0.00,,---,0.00,VWS V14.01,2013-04-17 19:44:00,
2013-04-17 15:50:00,79.7,64.1,30.10,SW,233,2.0,5.0,59,0.00,,---,0.00,VWS V14.01,2013-04-17 19:50:00,
2013-04-17 15:55:00,79.9,64.3,30.10,ESE,121,0.0,5.0,59,0.00,,---,0.00,VWS V14.01,2013-04-17 19:55:00,
2013-04-17 16:00:00,80.1,64.5,30.10,NNW,348,1.0,1.0,59,0.00,,---,0.00,VWS V14.01,2013-04-17 20:00:00,
2013-04-17 16:04:00,79.5,63.9,30.10,West,274,1.0,4.0,59,0.00,,---,0.00,VWS V14.01,2013-04-17 20:04:00,
2013-04-17 16:10:00,79.1,64.5,30.10,SW,222,2.0,4.0,61,0.00,,---,0.00,VWS V14.01,2013-04-17 20:10:00,
2013-04-17 16:15:00,79.3,64.7,30.09,East,101,0.0,4.0,61,0.00,,---,0.00,VWS V14.01,2013-04-17 20:15:00,
2013-04-17 16:20:00,79.4,64.3,30.09,WNW,284,0.0,4.0,60,0.00,,---,0.00,VWS V14.01,2013-04-17 20:20:00,
2013-04-17 16:25:00,79.6,64.5,30.09,West,279,0.0,4.0,60,0.00,,---,0.00,VWS V14.01,2013-04-17 20:25:00,
2013-04-17 16:30:00,79.6,64.5,30.09,WSW,238,1.0,2.0,60,0.00,,---,0.00,VWS V14.01,2013-04-17 20:30:00,
2013-04-17 16:35:00,79.6,64.5,30.09,West,280,1.0,2.0,60,0.00,,---,0.00,VWS V14.01,2013-04-17 20:35:00,
2013-04-17 16:40:00,80.0,64.9,30.08,NNW,342,0.0,2.0,60,0.00,,---,0.00,VWS V14.01,2013-04-17 20:40:00,
2013-04-17 16:45:00,80.4,65.3,30.08,East,97,1.0,2.0,60,0.00,,---,0.00,VWS V14.01,2013-04-17 20:45:00,
2013-04-17 16:50:00,80.8,64.7,30.08,WSW,248,0.0,2.0,58,0.00,,---,0.00,VWS V14.01,2013-04-17 20:50:00,
2013-04-17 16:55:00,81.6,65.4,30.08,SSW,211,1.0,2.0,58,0.00,,---,0.00,VWS V14.01,2013-04-17 20:55:00,
2013-04-17 17:00:00,82.0,64.3,30.08,SSE,157,2.0,4.0,55,0.00,,---,0.00,VWS V14.01,2013-04-17 21:00:00,
2013-04-17 17:05:00,82.1,63.3,30.08,SW,221,3.0,4.0,53,0.00,,---,0.00,VWS V14.01,2013-04-17 21:05:00,
2013-04-17 17:10:00,82.2,63.9,30.07,WSW,253,1.0,4.0,54,0.00,,---,0.00,VWS V14.01,2013-04-17 21:10:00,
2013-04-17 17:15:00,82.3,63.5,30.07,WNW,289,0.0,4.0,53,0.00,,---,0.00,VWS V14.01,2013-04-17 21:15:00,
2013-04-17 17:20:00,82.5,63.1,30.07,WSW,245,2.0,4.0,52,0.00,,---,0.00,VWS V14.01,2013-04-17 21:20:00,
2013-04-17 17:25:00,82.6,63.8,30.07,SE,144,1.0,4.0,53,0.00,,---,0.00,VWS V14.01,2013-04-17 21:25:00,
2013-04-17 17:30:00,82.8,63.4,30.08,ESE,119,1.0,1.0,52,0.00,,---,0.00,VWS V14.01,2013-04-17 21:30:00,
2013-04-17 17:35:00,83.4,64.0,30.07,SSE,158,0.0,1.0,52,0.00,,---,0.00,VWS V14.01,2013-04-17 21:35:00,
2013-04-17 17:40:00,83.8,63.8,30.08,SE,134,1.0,1.0,51,0.00,,---,0.00,VWS V14.01,2013-04-17 21:40:00,
2013-04-17 17:45:00,83.7,63.7,30.08,South,178,1.0,3.0,51,0.00,,---,0.00,VWS V14.01,2013-04-17 21:45:00,
2013-04-17 17:50:00,83.4,62.8,30.08,East,98,2.0,3.0,50,0.00,,---,0.00,VWS V14.01,2013-04-17 21:50:00,
2013-04-17 17:55:00,83.4,63.4,30.08,SSW,211,2.0,3.0,51,0.00,,---,0.00,VWS V14.01,2013-04-17 21:55:00,
2013-04-17 18:00:00,83.3,63.9,30.08,WSW,246,0.0,2.0,52,0.00,,---,0.00,VWS V14.01,2013-04-17 22:00:00,
2013-04-17 18:05:00,82.7,62.8,30.08,SSW,203,4.0,4.0,51,0.00,,---,0.00,VWS V14.01,2013-04-17 22:05:00,
2013-04-17 18:10:00,81.7,62.4,30.08,South,188,2.0,5.0,52,0.00,,---,0.00,VWS V14.01,2013-04-17 22:10:00,
2013-04-17 18:15:00,81.1,62.9,30.08,SSE,167,0.0,5.0,54,0.00,,---,0.00,VWS V14.01,2013-04-17 22:15:00,
2013-04-17 18:20:00,80.5,62.3,30.08,SW,217,1.0,5.0,54,0.00,,---,0.00,VWS V14.01,2013-04-17 22:20:00,
2013-04-17 18:25:00,80.1,63.0,30.08,SW,222,0.0,5.0,56,0.00,,---,0.00,VWS V14.01,2013-04-17 22:25:00,
2013-04-17 18:30:00,79.9,62.8,30.09,SW,222,0.0,1.0,56,0.00,,---,0.00,VWS V14.01,2013-04-17 22:30:00,
2013-04-17 18:35:00,80.0,63.9,30.08,SW,222,0.0,1.0,58,0.00,,---,0.00,VWS V14.01,2013-04-17 22:35:00,
2013-04-17 18:40:00,80.1,63.5,30.08,SW,222,0.0,1.0,57,0.00,,---,0.00,VWS V14.01,2013-04-17 22:40:00,
2013-04-17 18:45:00,79.9,63.8,30.08,SW,222,0.0,1.0,58,0.00,,---,0.00,VWS V14.01,2013-04-17 22:45:00,
2013-04-17 18:50:00,79.6,64.0,30.08,SW,222,0.0,1.0,59,0.00,,---,0.00,VWS V14.01,2013-04-17 22:50:00,
2013-04-17 18:55:00,79.3,64.2,30.08,SW,222,0.0,1.0,60,0.00,,---,0.00,VWS V14.01,2013-04-17 22:55:00,
2013-04-17 19:00:00,78.9,64.8,30.08,SW,222,0.0,0.0,62,0.00,,---,0.00,VWS V14.01,2013-04-17 23:00:00,
2013-04-17 19:05:00,78.6,64.5,30.08,SW,222,0.0,0.0,62,0.00,,---,0.00,VWS V14.01,2013-04-17 23:05:00,
2013-04-17 19:10:00,78.1,64.9,30.08,SW,222,0.0,0.0,64,0.00,,---,0.00,VWS V14.01,2013-04-17 23:10:00,
2013-04-17 19:15:00,77.4,64.7,30.08,SW,222,0.0,0.0,65,0.00,,---,0.00,VWS V14.01,2013-04-17 23:15:00,
2013-04-17 19:20:00,77.0,64.8,30.08,SW,222,0.0,0.0,66,0.00,,---,0.00,VWS V14.01,2013-04-17 23:20:00,
2013-04-17 19:25:00,76.6,64.8,30.08,SW,222,0.0,0.0,67,0.00,,---,0.00,VWS V14.01,2013-04-17 23:25:00,
2013-04-17 19:30:00,76.2,64.9,30.08,SW,222,0.0,0.0,68,0.00,,---,0.00,VWS V14.01,2013-04-17 23:30:00,
2013-04-17 19:35:00,75.6,64.7,30.08,SW,222,0.0,0.0,69,0.00,,---,0.00,VWS V14.01,2013-04-17 23:35:00,
2013-04-17 19:40:00,75.0,65.0,30.08,SW,222,0.0,0.0,71,0.00,,---,0.00,VWS V14.01,2013-04-17 23:40:00,
2013-04-17 19:45:00,74.3,65.1,30.08,SW,222,0.0,0.0,73,0.00,,---,0.00,VWS V14.01,2013-04-17 23:45:00,
2013-04-17 19:50:00,73.6,64.8,30.08,SW,222,0.0,0.0,74,0.00,,---,0.00,VWS V14.01,2013-04-17 23:50:00,
2013-04-17 19:55:00,72.9,64.5,30.09,SW,222,0.0,0.0,75,0.00,,---,0.00,VWS V14.01,2013-04-17 23:55:00,
2013-04-17 20:00:00,72.5,64.5,30.09,SW,222,0.0,0.0,76,0.00,,---,0.00,VWS V14.01,2013-04-18 00:00:00,
2013-04-17 20:05:00,72.1,64.9,30.09,SW,222,0.0,0.0,78,0.00,,---,0.00,VWS V14.01,2013-04-18 00:05:00,
2013-04-17 20:10:00,71.8,64.9,30.09,SW,222,0.0,0.0,79,0.00,,---,0.00,VWS V14.01,2013-04-18 00:10:00,
2013-04-17 20:15:00,71.5,64.7,30.09,SW,223,0.0,0.0,79,0.00,,---,0.00,VWS V14.01,2013-04-18 00:15:00,
2013-04-17 20:20:00,71.1,64.6,30.09,SW,222,0.0,0.0,80,0.00,,---,0.00,VWS V14.01,2013-04-18 00:20:00,
2013-04-17 20:25:00,70.8,65.0,30.10,SW,223,0.0,0.0,82,0.00,,---,0.00,VWS V14.01,2013-04-18 00:25:00,
2013-04-17 20:30:00,70.5,64.8,30.10,SW,222,0.0,0.0,82,0.00,,---,0.00,VWS V14.01,2013-04-18 00:30:00,
2013-04-17 20:35:00,70.2,64.8,30.10,SW,222,0.0,0.0,83,0.00,,---,0.00,VWS V14.01,2013-04-18 00:35:00,
2013-04-17 20:40:00,69.9,64.5,30.10,SW,222,0.0,0.0,83,0.00,,---,0.00,VWS V14.01,2013-04-18 00:40:00,
2013-04-17 20:45:00,69.7,64.3,30.10,SW,222,0.0,0.0,83,0.00,,---,0.00,VWS V14.01,2013-04-18 00:45:00,
2013-04-17 20:51:00,69.6,64.6,30.10,SW,222,0.0,0.0,84,0.00,,---,0.00,VWS V14.01,2013-04-18 00:51:00,
2013-04-17 20:56:00,69.4,64.4,30.10,SW,222,0.0,0.0,84,0.00,,---,0.00,VWS V14.01,2013-04-18 00:56:00,
2013-04-17 21:00:00,69.3,64.6,30.10,SW,221,0.0,0.0,85,0.00,,---,0.00,VWS V14.01,2013-04-18 01:00:00,
2013-04-17 21:05:00,69.1,64.4,30.10,SW,222,0.0,0.0,85,0.00,,---,0.00,VWS V14.01,2013-04-18 01:05:00,
2013-04-17 21:11:00,68.8,64.4,30.11,SW,222,0.0,0.0,86,0.00,,---,0.00,VWS V14.01,2013-04-18 01:11:00,
2013-04-17 21:16:00,68.7,64.3,30.11,SW,222,0.0,0.0,86,0.00,,---,0.00,VWS V14.01,2013-04-18 01:16:00,
2013-04-17 21:21:00,68.5,64.5,30.11,SW,222,0.0,0.0,87,0.00,,---,0.00,VWS V14.01,2013-04-18 01:21:00,
2013-04-17 21:26:00,68.4,64.4,30.11,SW,222,0.0,0.0,87,0.00,,---,0.00,VWS V14.01,2013-04-18 01:26:00,
2013-04-17 21:31:00,68.3,64.3,30.11,SW,222,0.0,0.0,87,0.00,,---,0.00,VWS V14.01,2013-04-18 01:31:00,
2013-04-17 21:36:00,68.2,64.5,30.11,SW,222,0.0,0.0,88,0.00,,---,0.00,VWS V14.01,2013-04-18 01:36:00,
2013-04-17 21:41:00,68.1,64.1,30.11,SW,222,0.0,0.0,87,0.00,,---,0.00,VWS V14.01,2013-04-18 01:41:00,
2013-04-17 21:46:00,68.1,64.4,30.11,SW,222,0.0,0.0,88,0.00,,---,0.00,VWS V14.01,2013-04-18 01:46:00,
2013-04-17 21:51:00,67.9,64.2,30.11,SW,222,0.0,0.0,88,0.00,,---,0.00,VWS V14.01,2013-04-18 01:51:00,
2013-04-17 21:56:00,67.8,64.1,30.11,SW,222,0.0,0.0,88,0.00,,---,0.00,VWS V14.01,2013-04-18 01:56:00,
2013-04-17 22:01:00,67.6,63.9,30.11,SW,222,0.0,0.0,88,0.00,,---,0.00,VWS V14.01,2013-04-18 02:01:00,
2013-04-17 22:06:00,67.4,64.1,30.11,SW,222,0.0,0.0,89,0.00,,---,0.00,VWS V14.01,2013-04-18 02:06:00,
2013-04-17 22:12:00,67.2,63.8,30.11,SW,222,0.0,0.0,89,0.00,,---,0.00,VWS V14.01,2013-04-18 02:12:00,
2013-04-17 22:17:00,67.1,63.8,30.11,SW,222,0.0,0.0,89,0.00,,---,0.00,VWS V14.01,2013-04-18 02:17:00,
2013-04-17 22:22:00,66.9,63.9,30.11,SW,222,0.0,0.0,90,0.00,,---,0.00,VWS V14.01,2013-04-18 02:22:00,
2013-04-17 22:27:00,66.9,63.9,30.11,SW,221,0.0,0.0,90,0.00,,---,0.00,VWS V14.01,2013-04-18 02:27:00,
2013-04-17 22:32:00,66.8,63.8,30.11,SW,222,0.0,0.0,90,0.00,,---,0.00,VWS V14.01,2013-04-18 02:32:00,
2013-04-17 22:37:00,66.8,64.1,30.11,SW,222,0.0,0.0,91,0.00,,---,0.00,VWS V14.01,2013-04-18 02:37:00,
2013-04-17 22:42:00,66.8,64.1,30.11,SW,222,0.0,0.0,91,0.00,,---,0.00,VWS V14.01,2013-04-18 02:42:00,
2013-04-17 22:47:00,66.8,64.1,30.11,SW,221,0.0,0.0,91,0.00,,---,0.00,VWS V14.01,2013-04-18 02:47:00,
2013-04-17 22:52:00,66.8,64.1,30.11,SW,221,0.0,0.0,91,0.00,,---,0.00,VWS V14.01,2013-04-18 02:52:00,
2013-04-17 22:57:00,66.8,64.1,30.12,SW,221,0.0,0.0,91,0.00,,---,0.00,VWS V14.01,2013-04-18 02:57:00,
2013-04-17 23:02:00,66.8,64.1,30.11,SW,221,0.0,0.0,91,0.00,,---,0.00,VWS V14.01,2013-04-18 03:02:00,
2013-04-17 23:07:00,66.8,64.1,30.12,SW,221,0.0,0.0,91,0.00,,---,0.00,VWS V14.01,2013-04-18 03:07:00,
2013-04-17 23:12:00,66.8,64.1,30.12,SW,221,0.0,0.0,91,0.00,,---,0.00,VWS V14.01,2013-04-18 03:12:00,
2013-04-17 23:17:00,66.8,64.1,30.12,SW,221,0.0,0.0,91,0.00,,---,0.00,VWS V14.01,2013-04-18 03:17:00,
2013-04-17 23:22:00,66.8,64.1,30.12,SW,221,0.0,0.0,91,0.00,,---,0.00,VWS V14.01,2013-04-18 03:22:00,
2013-04-17 23:27:00,67.0,64.3,30.12,SW,221,0.0,0.0,91,0.00,,---,0.00,VWS V14.01,2013-04-18 03:27:00,
2013-04-17 23:32:00,67.0,64.3,30.12,SW,221,0.0,0.0,91,0.00,,---,0.00,VWS V14.01,2013-04-18 03:32:00,
2013-04-17 23:37:00,67.1,64.4,30.12,SW,221,0.0,0.0,91,0.00,,---,0.00,VWS V14.01,2013-04-18 03:37:00,
2013-04-17 23:42:00,67.2,64.5,30.12,SSW,192,0.0,0.0,91,0.00,,---,0.00,VWS V14.01,2013-04-18 03:42:00,
2013-04-17 23:47:00,67.2,64.2,30.12,South,186,0.0,0.0,90,0.00,,---,0.00,VWS V14.01,2013-04-18 03:47:00,
2013-04-17 23:52:00,67.1,64.1,30.12,South,183,0.0,0.0,90,0.00,,---,0.00,VWS V14.01,2013-04-18 03:52:00,
2013-04-17 23:57:00,67.2,64.2,30.12,West,267,1.0,1.0,90,0.00,,---,0.00,VWS V14.01,2013-04-18 03:57:00,